This is the latest recevied weather packets stored in our database for station/object ALTO-WX. If no packets are shown the sender has not sent any weather packets the latest 10 day(s).
| Time | Temp. | Humidity | Pressure | Rain* | Wind** | Luminosity | Snow |
|---|---|---|---|---|---|---|---|
| 1778310936 | 7.22° C | 75% | 974.9 hPa | 0 mm | - | - | - |
| 1778310065 | 6.67° C | 75% | 974.9 hPa | 0 mm | - | - | - |
| 1778309135 | 6.67° C | 50% | 975.2 hPa | 0 mm | - | - | - |
| 1778308251 | 7.22° C | 52% | 974.9 hPa | 0 mm | - | - | - |
| 1778307335 | 7.22° C | 52% | 974.9 hPa | 0 mm | - | - | - |
| 1778306473 | 7.22° C | 52% | 974.9 hPa | 0 mm | - | - | - |
| 1778305534 | 7.22° C | 47% | 976.4 hPa | 0 mm | - | - | - |
| 1778304650 | 7.22° C | 46% | 975.9 hPa | 0 mm | - | - | - |
| 1778303733 | 7.22° C | 46% | 975.8 hPa | 0 mm | - | - | - |
| 1778302865 | 7.78° C | 46% | 975.8 hPa | 0 mm | - | - | - |
| 1778301934 | 7.78° C | 47% | 976.9 hPa | 0 mm | - | - | - |
| 1778301051 | 7.78° C | 47% | 975.6 hPa | 0 mm | - | - | - |
| 1778300133 | 8.33° C | 47% | 975.6 hPa | 0 mm | - | - | - |
| 1778299268 | 8.33° C | 47% | 975.6 hPa | 0 mm | - | - | - |
| 1778298334 | 8.89° C | 40% | 976.3 hPa | 0 mm | - | - | - |
| 1778297449 | 8.89° C | 38% | 977 hPa | 0 mm | - | - | - |
| 1778296533 | 9.44° C | 38% | 977 hPa | 0 mm | - | - | - |
| 1778295665 | 9.44° C | 38% | 977 hPa | 0 mm | - | - | - |
| 1778294733 | 10° C | 30% | 977.6 hPa | 0 mm | - | - | - |
| 1778293851 | 10° C | 29% | 977.4 hPa | 0 mm | - | - | - |
| 1778292933 | 10° C | 29% | 977.3 hPa | 0 mm | - | - | - |
| 1778292063 | 10.56° C | 29% | 977.3 hPa | 0 mm | - | - | - |
| 1778291133 | 11.11° C | 31% | 977.3 hPa | 0 mm | - | - | - |
| 1778290248 | 11.11° C | 31% | 977.3 hPa | 0 mm | - | - | - |
| 1778289333 | 11.67° C | 31% | 977.3 hPa | 0 mm | - | - | - |
* Rain latest hour (hover to see other rain measurements)
** Current wind speed in m/s (hover to see current wind gust speed)